Regional Weather Roundup
Issued by NWS Bismarck, ND

Home | Current Version | Previous Version | Text Only | Print | Product List | Glossary On
Versions: 1 2 3 4 5 6 7 8 9 10 11 12 13 14 15 16 17 18 19 20 21 22 23 24 25 26 27 28 29 30 31 32 33 34 35 36 37 38 39 40 41 42 43 44 45 46 47 48 49 50
000
ASUS43 KBIS 291110
RWRBIS

NWR BROADCAST TEXT
NATIONAL WEATHER SERVICE BISMARCK ND
600 AM CDT THU JUN 29 2017

NOTE: "FAIR" INDICATES FEW OR NO CLOUDS BELOW 12,000 FEET WITH NO
SIGNIFICANT WEATHER AND/OR OBSTRUCTIONS TO VISIBILITY.


CITY           SKY/WX    TMP DP  RH WIND       PRES   REMARKS
WILLISTON      CLOUDY    53  48  83 N5        29.80S
MINOT          PTCLDY    56  50  80 W3        29.79R
MINOT AFB      MOCLDY    49  47  93 W6        29.78R
BISMARCK       CLOUDY    59  55  87 CALM      29.80R
DICKINSON      CLOUDY    59  44  57 E7        29.78R
GARRISON         N/A     56  51  84 N3        29.79R
HETTINGER ARPT CLOUDY    58  48  69 S7        29.83R
JAMESTOWN      CLOUDY    53  51  93 NW3       29.75F
HAZEN          FAIR      54  54 100 CALM      29.81R
LINTON         FAIR     N/A N/A N/A NW5       29.81R
MANDAN         FAIR      57  54  88 CALM      29.81R
STANLEY        CLOUDY    55  55 100 NE3       29.84R
TIOGA          FAIR      48  48 100 CALM      29.83R
WATFORD CITY   FAIR      45  43  93 CALM      29.80R
$$

CITY           SKY/WX    TMP DP  RH WIND       PRES   REMARKS
GRAND FORKS    FOG       58  58 100 W3        29.75R VSB 1/4
GRAND FORKS AF FOG       57  57 100 N3        29.75R VSB 1/4
DEVILS LAKE    FOG       54  54 100 CALM      29.78R VSB 1/4
FARGO          CLOUDY    62  60  93 N8        29.74S
CAVALIER       FOG       55 N/A N/A CALM      29.74R VSB<1/4
GRAFTON        FOG       57  57 100 W5        29.77R VSB<1/4
GWINNER        CLOUDY    57  55  94 CALM      29.75R FOG
LANGDON        FOG       52  52 100 CALM      29.77R VSB<1/4
ROLLA            N/A     55  54  94 W5        29.79R
$$

CITY           SKY/WX    TMP DP  RH WIND       PRES   REMARKS
ABERDEEN       CLOUDY    50  49  96 CALM      29.76R
MOBRIDGE       CLOUDY    61  49  64 NW3       29.76R
BUFFALO          N/A     60  52  74 CALM      29.78R
RAPID CITY     CLOUDY    59  52  77 N8        29.83R
GLASGOW        CLEAR     51  45  79 NW13      29.82R
SIDNEY         MOCLDY    53  48  83 CALM      29.79S
WOLF POINT     CLOUDY    51  44  77 CALM      29.81R
GLENDIVE       CLOUDY    55  50  83 CALM      29.80S
MILES CITY     CLOUDY    59  50  72 SW3       29.81R
BAKER          CLOUDY    58  49  72 W6        29.83R
$$

CITY           SKY/WX    TMP DP  RH WIND       PRES   REMARKS
BILLINGS       MOCLDY    61  41  47 NW18G26   29.92R
GREAT FALLS    CLOUDY    52  44  74 NW7       30.04R
REGINA         MOCLDY    48  46  93 S6        29.80R
ESTEVAN        CLOUDY    55  52  88 NE6       29.79S
$$




USA.gov is the U.S. government's official web portal to all federal, state and local government web resources and services.